,

(GMT )
Munich

Weather History for EDDM - November, 2017

Change the Weather History Date:

Tuesday, November 14, 2017

  Actual Average Record
Temperature  
Mean Temperature 30 °F -  
Max Temperature 33 °F 42 °F 64 °F (2010)
Min Temperature 28 °F 31 °F 21 °F (2016)
Degree Days  
Heating Degree Days 34    
Moisture  
Dew Point 30 °F    
Average Humidity 96    
Maximum Humidity 100    
Minimum Humidity 93    
Precipitation  
Precipitation 0.00 in - - ()
Sea Level Pressure  
Sea Level Pressure 30.26 in    
Wind  
Wind Speed 3 mph ()    
Max Wind Speed 5 mph    
Max Gust Speed -    
Visibility 1.4 miles    
Events Fog    
Averages and records for this station are not official NWS values.
T = Trace of Precipitation, MM = Missing Value Source: Averaged Metar Reports

Daily Weather History Graph

Daily Weather History Graph

Search for Another Location

Airport or City:

Trip Planner

Search our weather history database for the weather conditions in past years. The results will help you decide how hot, cold, wet, or windy it might be!

Date:

Astronomy

Nov. 14, 2017 Rise Set
Actual Time 7:18 AM CET 4:36 PM CET
Civil Twilight 6:44 AM CET 5:10 PM CET
Nautical Twilight 6:06 AM CET 5:47 PM CET
Astronomical Twilight 5:30 AM CET 6:24 PM CET
Moon 2:37 AM CET (11/14) 3:13 PM CET (11/14)
Length of Visible Light 10h 25m
Length of Day
9h 17m
Waning Crescent, 15% of the Moon is Illuminated
Nov 14
Waning Crescent
Nov 18
New
Nov 26
First Quarter
Dec 3
Full
Dec 10
Last Quarter

Hourly Weather History & Observations

Time (CET) Temp. Windchill Dew Point Humidity Pressure Visibility Wind Dir Wind Speed Gust Speed Precip Events Conditions
12:20 AM 32.0 °F - 30.2 °F 93% 30.12 in 6.2 mi West 2.3 mph - N/A   Scattered Clouds
12:50 AM 30.2 °F 26.7 °F 28.4 °F 93% 30.15 in 6.2 mi WSW 3.5 mph - N/A   Partly Cloudy
1:20 AM 30.2 °F 26.7 °F 28.4 °F 93% 30.15 in 6.2 mi SW 3.5 mph - N/A   Partly Cloudy
1:50 AM 28.4 °F - 28.4 °F 100% 30.15 in 6.2 mi WSW 2.3 mph - N/A   Scattered Clouds
2:20 AM 30.2 °F 26.7 °F 28.4 °F 93% 30.15 in 6.2 mi WSW 3.5 mph - N/A   Mostly Cloudy
2:50 AM 30.2 °F - 30.2 °F 100% 30.18 in 6.2 mi SSW 2.3 mph - N/A   Mostly Cloudy
3:20 AM 32.0 °F 28.7 °F 30.2 °F 93% 30.18 in 6.2 mi West 3.5 mph - N/A   Scattered Clouds
3:50 AM 32.0 °F - 30.2 °F 93% 30.18 in 5.0 mi Variable 1.2 mph - N/A Fog Patches of Fog
4:20 AM 30.2 °F 26.7 °F 30.2 °F 100% 30.18 in 2.8 mi WNW 3.5 mph - N/A Fog Patches of Fog
4:50 AM 28.4 °F 24.6 °F 26.6 °F 93% 30.18 in 0.9 mi SSW 3.5 mph - N/A Fog Patches of Fog
5:20 AM 30.2 °F - 30.2 °F 100% 30.21 in 0.1 mi Variable 1.2 mph - N/A Fog Light Freezing Fog
5:50 AM 30.2 °F 25.4 °F 28.4 °F 93% 30.21 in 0.1 mi South 4.6 mph - N/A Fog Light Freezing Fog
6:20 AM 28.4 °F 23.3 °F 28.4 °F 100% 30.21 in 0.1 mi SW 4.6 mph - N/A Fog Light Freezing Fog
6:50 AM 28.4 °F 24.6 °F 26.6 °F 93% 30.24 in 0.2 mi West 3.5 mph - N/A Fog Light Freezing Fog
7:20 AM 28.4 °F - 26.6 °F 93% 30.24 in 0.2 mi Variable 2.3 mph - N/A Fog Light Freezing Fog
7:50 AM 28.4 °F - 26.6 °F 93% 30.27 in 0.2 mi Variable 2.3 mph - N/A Fog Light Freezing Fog
8:20 AM 28.4 °F - 26.6 °F 93% 30.27 in 0.1 mi Variable 1.2 mph - N/A Fog Light Freezing Fog
8:50 AM 28.4 °F 24.6 °F 26.6 °F 93% 30.27 in 0.1 mi SSW 3.5 mph - N/A Fog Light Freezing Fog
9:20 AM 28.4 °F - 28.4 °F 100% 30.27 in 0.1 mi Variable 2.3 mph - N/A Fog Light Freezing Fog
9:50 AM 28.4 °F 24.6 °F 28.4 °F 100% 30.30 in 0.1 mi South 3.5 mph - N/A Fog Light Freezing Fog
10:20 AM 30.2 °F - 28.4 °F 93% 30.30 in 0.2 mi Variable 2.3 mph - N/A Fog Light Freezing Fog
10:50 AM 30.2 °F - 30.2 °F 100% 30.30 in 0.2 mi Variable 1.2 mph - N/A Fog Light Freezing Fog
11:20 AM 32.0 °F - 30.2 °F 93% 30.30 in 0.2 mi Variable 2.3 mph - N/A Fog Light Freezing Fog
11:50 AM 32.0 °F - 32.0 °F 100% 30.30 in 0.3 mi Variable 2.3 mph - N/A Fog Light Freezing Fog
12:20 PM 32.0 °F - 32.0 °F 100% 30.30 in 0.5 mi Variable 2.3 mph - N/A Fog Light Freezing Fog
12:50 PM 32.0 °F - 32.0 °F 100% 30.30 in 0.7 mi Variable 2.3 mph - N/A   Mostly Cloudy
1:20 PM 33.8 °F - 32.0 °F 93% 30.27 in 0.6 mi Variable 2.3 mph - N/A Fog Fog
1:50 PM 32.0 °F 28.7 °F 32.0 °F 100% 30.27 in 0.6 mi North 3.5 mph - N/A Fog Fog
2:20 PM 33.8 °F 30.8 °F 32.0 °F 93% 30.27 in 0.6 mi East 3.5 mph - N/A Fog Fog
2:50 PM 33.8 °F - 32.0 °F 93% 30.27 in 0.3 mi Variable 2.3 mph - N/A Fog Fog
3:20 PM 33.8 °F - 32.0 °F 93% 30.27 in 0.6 mi Variable 2.3 mph - N/A Fog Fog
3:50 PM 33.8 °F 30.8 °F 32.0 °F 93% 30.27 in 0.7 mi Variable 3.5 mph - N/A Fog Patches of Fog
4:20 PM 32.0 °F - 32.0 °F 100% 30.27 in 0.8 mi Variable 2.3 mph - N/A Fog Patches of Fog
4:50 PM 32.0 °F - 32.0 °F 100% 30.30 in 0.4 mi Variable 2.3 mph - N/A Fog Fog
5:20 PM 33.8 °F 30.8 °F 32.0 °F 93% 30.30 in 0.2 mi NNE 3.5 mph - N/A Fog Fog
5:50 PM 32.0 °F 28.7 °F 32.0 °F 100% 30.30 in 0.2 mi North 3.5 mph - N/A Fog Fog
6:20 PM 32.0 °F 28.7 °F 32.0 °F 100% 30.30 in 0.2 mi NE 3.5 mph - N/A Fog Fog
6:50 PM 32.0 °F 28.7 °F 32.0 °F 100% 30.33 in 0.2 mi ENE 3.5 mph - N/A Fog Fog
7:20 PM 32.0 °F 28.7 °F 32.0 °F 100% 30.33 in 0.4 mi SE 3.5 mph - N/A Fog Fog
7:50 PM 32.0 °F - 32.0 °F 100% 30.33 in 1.2 mi Variable 2.3 mph - N/A   Mostly Cloudy
8:20 PM 32.0 °F 28.7 °F 30.2 °F 93% 30.33 in 1.2 mi ENE 3.5 mph - N/A   Overcast
8:50 PM 32.0 °F 27.5 °F 30.2 °F 93% 30.33 in 0.3 mi South 4.6 mph - N/A Fog Light Freezing Fog
9:20 PM 32.0 °F 28.7 °F 30.2 °F 93% 30.33 in 0.3 mi South 3.5 mph - N/A Fog Light Freezing Fog
9:50 PM 32.0 °F 28.7 °F 30.2 °F 93% 30.33 in 0.3 mi South 3.5 mph - N/A Fog Light Freezing Fog
10:20 PM 30.2 °F 26.7 °F 30.2 °F 100% 30.33 in 0.3 mi SE 3.5 mph - N/A Fog Light Freezing Fog
10:50 PM 32.0 °F 28.7 °F 30.2 °F 93% 30.33 in 0.3 mi SE 3.5 mph - N/A Fog Light Freezing Fog
11:20 PM 32.0 °F - 30.2 °F 93% 30.33 in 0.3 mi Variable 1.2 mph - N/A Fog Light Freezing Fog
11:50 PM 32.0 °F 28.7 °F 30.2 °F 93% 30.33 in 0.3 mi SSE 3.5 mph - N/A Fog Light Freezing Fog